Tracking 17844 objects as of 24-August-2016
HD Live streaming from Space Station
objects crossing your sky now

SCOUT X-4 DEB

Track SCOUT X-4 DEB now!
10-day predictions


NORAD ID: 2088
Int'l Code: 1965-093D
Perigee: 664.4 km
Apogee: 776.4 km
Inclination: 59.7 °
Period: 99.1 minutes
Semi major axis: 7091 km
RCS: 0.0298 m2 (small)
Launch date: November 19, 1965
Source: United States (US)
Launch site: WALLOPS ISLAND (WLPIS)

Note: This is SATELLITE DEBRIS
Your satellite tracking list
Your tracking list is empty





NASA's NSSDC Master Catalog

Two Line Element Set (TLE):
1  2088U 65093D   16235.51882132 +.00000018 +00000-0 +41561-4 0  9998
2  2088 059.7198 063.5433 0078963 316.4533 043.0294 14.53790357631771
Source of the keplerian elements: AFSPC

N2YO: 451